User: anonymous   Login
Location: Hopkins Observatory
(42.6965°N, 73.1843°W)
Time: 23:42:10
(UTC-04:00)
Language:

RS-15 - Orbit

View from above orbital plane
View from above orbital plane
View from above satellite
View from above satellite

Ground track
Ground track

The orbit data is extracted from the following two-line orbital elements,

1 23439U 94085A   16267.68275648 -.00000041 +00000-0 +35103-4 0  9997
2 23439 064.8151 290.2235 0167356 290.9895 166.3845 11.27565373895365
Epoch (UTC): 23 September 2016 16:23:10
Eccentricity: 0.0167356
inclination: 64.8151°
perigee height: 1882 km
apogee height: 2163 km
right ascension of ascending node: 290.2235°
argument of perigee: 290.9895°
revolutions per day: 11.27565373
mean anomaly at epoch: 166.3845°
orbit number at epoch: 89536

The dashed part of the orbit path shows where the satellite is in the earth's shadow,  

DLR